| time (UTC) | temp C | wind direction | speed KPH | gust KPH | rain 1hr cm | rain 24hr cm | rain mn cm | humidity % | barometer mb |
| 20260507161202 | 19 | 180 | 6.4 | 11.3 | 0.00 | 0.00 | 0.00 | 67 | 1008.8 |
| 20260507160202 | 19 | 90 | 8.0 | 8.0 | 0.00 | 0.00 | 0.00 | 66 | 1008.8 |
| 20260507155201 | 20 | 180 | 8.0 | 9.7 | 0.00 | 0.00 | 0.00 | 64 | 1008.8 |
| 20260507154200 | 20 | 90 | 4.8 | 14.5 | 0.00 | 0.00 | 0.00 | 64 | 1008.8 |
| 20260507153200 | 20 | 180 | 6.4 | 6.4 | 0.00 | 0.00 | 0.00 | 64 | 1008.8 |
| 20260507152202 | 20 | 225 | 6.4 | 11.3 | 0.00 | 0.00 | 0.00 | 63 | 1008.8 |
| 20260507151202 | 20 | 180 | 8.0 | 12.9 | 0.00 | 0.00 | 0.00 | 62 | 1008.8 |
| 20260507130220 | 20 | 90 | 4.8 | 8.0 | 0.00 | 0.00 | 0.00 | 62 | 1009.8 |
| 20260507125200 | 20 | 180 | 6.4 | 11.3 | 0.00 | 0.00 | 0.00 | 62 | 1009.8 |
| 20260507124220 | 20 | 180 | 8.0 | 12.9 | 0.00 | 0.00 | 0.00 | 61 | 1009.8 |
| 20260507123200 | 20 | 225 | 11.3 | 11.3 | 0.00 | 0.00 | 0.00 | 60 | 1009.8 |
| 20260507122220 | 20 | 225 | 4.8 | 12.9 | 0.00 | 0.00 | 0.00 | 60 | 1009.8 |
| 20260507121200 | 20 | 180 | 6.4 | 12.9 | 0.00 | 0.00 | 0.00 | 63 | 1009.8 |
| 20260507100159 | 19 | 180 | 6.4 | 6.4 | 0.00 | 0.00 | 0.00 | 65 | 1010.8 |
| 20260507095159 | 19 | 180 | 8.0 | 11.3 | 0.00 | 0.00 | 0.00 | 66 | 1010.8 |
| 20260507094159 | 18 | 180 | 4.8 | 11.3 | 0.00 | 0.00 | 0.00 | 68 | 1010.8 |
| 20260507093159 | 18 | 180 | 6.4 | 11.3 | 0.00 | 0.00 | 0.00 | 70 | 1010.8 |
| 20260506191201 | 17 | 180 | 4.8 | 11.3 | 0.00 | 0.00 | 0.00 | 87 | 1008.8 |
| 20260506190201 | 18 | 180 | 8.0 | 8.0 | 0.00 | 0.00 | 0.00 | 85 | 1008.8 |
| 20260506174200 | 18 | 225 | 8.0 | 16.1 | 0.00 | 0.00 | 0.00 | 80 | 1007.8 |
| 20260506173200 | 18 | 225 | 11.3 | 11.3 | 0.00 | 0.00 | 0.00 | 77 | 1007.8 |
| 20260506172200 | 19 | 225 | 8.0 | 12.9 | 0.00 | 0.00 | 0.00 | 78 | 1007.8 |
| 20260506171201 | 18 | 225 | 11.3 | 12.9 | 0.00 | 0.00 | 0.00 | 78 | 1007.8 |
| 20260506170201 | 18 | 180 | 6.4 | 12.9 | 0.00 | 0.00 | 0.00 | 80 | 1007.8 |
| 20260506165201 | 18 | 180 | 8.0 | 8.0 | 0.00 | 0.00 | 0.00 | 78 | 1007.8 |
| 20260506164159 | 19 | 180 | 8.0 | 8.0 | 0.00 | 0.00 | 0.00 | 76 | 1007.8 |
| 20260506163159 | 20 | 180 | 8.0 | 8.0 | 0.00 | 0.00 | 0.00 | 75 | 1007.8 |
| 20260506162159 | 19 | 180 | 8.0 | 8.0 | 0.00 | 0.00 | 0.00 | 76 | 1007.8 |